[TLELIST] Archives

 

[list_settings.list_name] Current TLEs

November 1st 2009 PST

HST 1 20580U 90037B 09303.03997874 .00000468 00000-0 23113-4 0 4690 2 20580 028.4708 302.1530 0003431 273.1763 086.8394 15.00847078870137 ISS (ZARYA) 1 25544U 98067A 09303.54076594 .00023714 00000-0 15533-3 0 8856 2 25544 051.6443 331.6762 0006160 268.1108 253.8433 15.75640473627276 CXO 1 25867U 99040B 09304.00000000 .00000649 00000-0 10000-3 0 3881 2 25867 066.0516 064.0888 7771913 275.3493 358.4006 00.37809361 5521 ____________________________________________________________________ These 2-Line ...Continue Reading

[list_settings.list_name] Current TLEs

October 31st 2009 PST

HST 1 20580U 90037B 09303.03997874 .00000468 00000-0 23113-4 0 4690 2 20580 028.4708 302.1530 0003431 273.1763 086.8394 15.00847078870137 ISS (ZARYA) 1 25544U 98067A 09303.35569444 .00023752 00000-0 15563-3 0 8828 2 25544 051.6432 332.6268 0006149 266.4202 285.0485 15.75631541627246 CXO 1 25867U 99040B 09304.00000000 .00000649 00000-0 10000-3 0 3881 2 25867 066.0516 064.0888 7771913 275.3493 358.4006 00.37809361 5521 ____________________________________________________________________ These 2-Line ...Continue Reading

[list_settings.list_name] Current TLEs

October 30th 2009 PST

HST 1 20580U 90037B 09300.38005163 .00000510 00000-0 26349-4 0 4687 2 20580 028.4706 319.5105 0003535 245.4323 114.6084 15.00845672869732 ISS (ZARYA) 1 25544U 98067A 09302.32670663 .00025084 00000-0 16442-3 0 8771 2 25544 051.6443 337.9232 0006138 261.2834 209.6486 15.75586613627083 CXO 1 25867U 99040B 09301.37500000 .00000566 00000-0 10000-3 0 3869 2 25867 066.0372 064.1900 7768207 275.3386 001.1072 00.37807367 5518 ____________________________________________________________________ These 2-Line ...Continue Reading

[list_settings.list_name] Current TLEs

October 29th 2009 PST

HST 1 20580U 90037B 09300.38005163 .00000510 00000-0 26349-4 0 4687 2 20580 028.4706 319.5105 0003535 245.4323 114.6084 15.00845672869732 ISS (ZARYA) 1 25544U 98067A 09301.50757563 .00026373 00000-0 17289-3 0 8711 2 25544 051.6445 342.1394 0006334 259.6440 242.0209 15.75549669626953 CXO 1 25867U 99040B 09301.37500000 .00000566 00000-0 10000-3 0 3869 2 25867 066.0372 064.1900 7768207 275.3386 001.1072 00.37807367 5518 ____________________________________________________________________ These 2-Line ...Continue Reading

[list_settings.list_name] Current TLEs

October 28th 2009 PST

HST 1 20580U 90037B 09297.45412603 .00000389 00000-0 17048-4 0 4670 2 20580 028.4709 338.6127 0003572 216.0985 143.9448 15.00843217869293 ISS (ZARYA) 1 25544U 98067A 09300.49244025 .00027844 00000-0 18265-3 0 8654 2 25544 051.6444 347.3627 0006410 253.1800 246.8870 15.75500823626799 CXO 1 25867U 99040B 09298.70833333 .00000416 00000-0 10000-3 0 3852 2 25867 066.0248 064.2702 7764228 275.3382 358.1213 00.37806237 5502 ____________________________________________________________________ These 2-Line ...Continue Reading

[list_settings.list_name] Current TLEs

October 27th 2009 PST

HST 1 20580U 90037B 09297.45412603 .00000389 00000-0 17048-4 0 4670 2 20580 028.4709 338.6127 0003572 216.0985 143.9448 15.00843217869293 ISS (ZARYA) 1 25544U 98067A 09299.48839120 .00029825 00000-0 19573-3 0 8571 2 25544 051.6439 352.5292 0006469 249.1786 312.3952 15.75450880626631 CXO 1 25867U 99040B 09298.70833333 .00000416 00000-0 10000-3 0 3852 2 25867 066.0248 064.2702 7764228 275.3382 358.1213 00.37806237 5502 ____________________________________________________________________ These 2-Line ...Continue Reading

[list_settings.list_name] Current TLEs

October 26th 2009 PST

HST 1 20580U 90037B 09297.45412603 .00000389 00000-0 17048-4 0 4670 2 20580 028.4709 338.6127 0003572 216.0985 143.9448 15.00843217869293 ISS (ZARYA) 1 25544U 98067A 09298.32721882 .00027754 00000-0 18307-3 0 8492 2 25544 051.6432 358.5031 0006606 245.5733 205.9583 15.75373828626459 CXO 1 25867U 99040B 09298.70833333 .00000416 00000-0 10000-3 0 3852 2 25867 066.0248 064.2702 7764228 275.3382 358.1213 00.37806237 5502 ____________________________________________________________________ These 2-Line ...Continue Reading

[list_settings.list_name] Current TLEs

October 25th 2009 PST

HST 1 20580U 90037B 09295.79166678 .00000330 00000-0 12474-4 0 4666 2 20580 028.4708 349.4660 0003641 199.2731 160.7743 15.00842047869040 ISS (ZARYA) 1 25544U 98067A 09297.52185185 .00028636 00000-0 18911-3 0 8450 2 25544 051.6429 002.6479 0006431 243.7192 317.2729 15.75329411626327 CXO 1 25867U 99040B 09296.08333333 .00000264 00000-0 10000-3 0 3846 2 25867 066.0172 064.3581 7759848 275.3355 000.7902 00.37807179 5495 ____________________________________________________________________ These 2-Line ...Continue Reading

[list_settings.list_name] Current TLEs

October 24th 2009 PST

HST 1 20580U 90037B 09295.79166678 .00000330 00000-0 12474-4 0 4666 2 20580 028.4708 349.4660 0003641 199.2731 160.7743 15.00842047869040 ISS (ZARYA) 1 25544U 98067A 09296.50553241 .00020729 00000-0 13865-3 0 8402 2 25544 051.6429 007.8755 0006682 239.8364 313.6093 15.75249741626169 CXO 1 25867U 99040B 09296.08333333 .00000264 00000-0 10000-3 0 3846 2 25867 066.0172 064.3581 7759848 275.3355 000.7902 00.37807179 5495 ____________________________________________________________________ These 2-Line ...Continue Reading

[list_settings.list_name] Current TLEs

October 23rd 2009 PST

HST 1 20580U 90037B 09294.52819721 .00000309 00000-0 10859-4 0 4650 2 20580 028.4711 357.7123 0003648 185.9306 174.1245 15.00841578868859 ISS (ZARYA) 1 25544U 98067A 09295.46795995 .00019629 00000-0 13180-3 0 8339 2 25544 051.6426 013.2115 0006818 231.9004 193.6812 15.75201097626002 CXO 1 25867U 99040B 09296.08333333 .00000264 00000-0 10000-3 0 3846 2 25867 066.0172 064.3581 7759848 275.3355 000.7902 00.37807179 5495 ____________________________________________________________________ These 2-Line ...Continue Reading
  • This mailing list is a public mailing list - anyone may join or leave, at any time.
  • This mailing list is announce-only.

International Space Station (ISS) / Hubble Space Telescope (HST) / Chandra X-Ray Observatory Orbital Data via EMAIL

Privacy Policy:

Private list